Location: 22
(39.7117°N, 89.5929°W)
Time: 03:32:03
(UTC-05:00)

Vanguard 1 Rocket - Pass Details

Date: 26 February 2024
Orbit: 650 x 4219 km, 34.3° (Epoch: 20 July)

Event Time Altitude Azimuth Distance (km) Brightness Sun altitude
Rises 03:35:17 0° 192° (SSW) 8,418 12.1 -35.2°
Reaches altitude 10° 03:44:03 10° 178° (S) 7,391 11.8 -33.6°
Maximum altitude 03:59:22 20° 140° (SE) 5,946 11.7 -30.8°
Drops below altitude 10° 04:11:30 10° 101° (E) 5,855 12.3 -28.5°
Sets 04:16:56 0° 86° (E) 6,300 12.9 -27.5°
